User: anonymous   Login
Location: Forst
(46.9333°N, 15.4333°E)
Time: 12:07:57
(UTC+00:00)
Language:

Oscar 11 - Orbit

View from above orbital plane
View from above orbital plane
View from above satellite
View from above satellite

Ground track
Ground track

The orbit data is extracted from the following two-line orbital elements,

1 14781U 84021B   22021.95432206  .00000419  00000-0  57042-4 0  9990
2 14781  97.6062  16.1930 0009962  84.3489 275.8861 14.83417582 18329
Epoch (UTC): 21 January 2022 22:54:13
Eccentricity: 0.0009962
inclination: 97.6062°
perigee height: 611 km
apogee height: 625 km
right ascension of ascending node: 16.1930°
argument of perigee: 84.3489°
revolutions per day: 14.83417582
mean anomaly at epoch: 275.8861°
orbit number at epoch: 1832

The dashed part of the orbit path shows where the satellite is in the earth's shadow,  

DLR